STARLINK-11112 [DTC] (60115 NORAD) Tracking and Keplerian Element Data

This shows tracking and keplerian element data for the satellite.

Feedback or suggestion? Click here.




ElementValue
Catalog60115
NameSTARLINK-11112 [DTC]
Epoch Orbit1744
Epoch Day286.85278
Epoch Year2024
RAAN229.5704
Inclination53.1564
Eccentricity0.000257
Argument of Perigee108.7525
Mean Anonmoly251.3772
Mean Motion15.69686653
Decay Rate0.00057965
L11 60115U 24118C 24286.85278000 .00057965 00000+0 48038-3 0 9998
L22 60115 53.1564 229.5704 0002570 108.7525 251.3772 15.69686653 17448



Live tracking and technical data element details for STARLINK-11112 [DTC] (NORAD 60115). STARLINK-11112 [DTC] can be tracked NOW for your location showing map with azimuth and elevation plus other details from your city location.







IsCatalogInMostPopularTable: catalog: 60115, numindb: 9
Update: records affected: 1



GetName: 60115 STARLINK-11112 [DTC]

Hit Count: updated at: Thu, 23 Jan 2025 14:42:19 GMT